sat.trackr.live / text

‹ back to catalog

STARLINK-32282

NORAD 61006 · 2024-158S

PAYLOAD ACTIVE UNKNOWN

§ Identity

Operator
Country
US
Launch date
2024-09-05
Launch site
AFETR
Launch vehicle
Mass (kg)
RCS (m²)

Purposes: comms

External: N2YO · Heavens-Above · Gunter

§ Orbital elements

Epoch: 2026-05-25T04:18:40.236768Z

Period
94.11 min
Inclination
53.1611°
Eccentricity
0.0001379
Mean motion
15.30192524 rev/d
Perigee alt
474.3 km
Apogee alt
476.2 km
Semi-major
6,853.4 km
B*
2.8497e-5
RAAN
70.1389°
Arg perigee
91.4011°
Mean anomaly
268.7148°
Rev number
9,736

§ Raw data

STARLINK-322821 61006U 24158S   26145.17963237  .00000485  00000+0  28497-4 0  99992 61006  53.1611  70.1389 0001379  91.4011 268.7148 15.30192524 97369

JSON: /api/v1/satellites/61006 · /tle

For live sub-satellite position, see the globe view (requires WebGL).

§ Visibility from observer

Set your observer location to see the next 7 days of passes ≥ 10°. The values pass through the URL so the page stays shareable.

No JS? Fill the form by hand. The geolocation button needs JavaScript.